Location: Unspecified
(0.0000°N, 0.0000°E)
Time: 05:53:54
(UTC+00:00)

Tiros 1 despin weight - Pass Details

Date: 10 October 2020
Orbit: 594 x 641 km, 48.2° (Epoch: 28 October)

Event Time Altitude Azimuth Distance (km) Brightness Sun altitude
Rises 15:37:34 0° 328° (NNW) 2,892 ? 32.1°
Reaches altitude 10° 15:39:54 10° 333° (NNW) 1,995 ? 31.5°
Maximum altitude 15:44:25 57° 51° (NE) 746 ? 30.4°
Drops below altitude 10° 15:48:59 10° 130° (SE) 2,022 ? 29.2°
Sets 15:51:22 0° 134° (SE) 2,936 ? 28.6°
